N5KR Weather Reports


Display with metric or nautical units.
time (UTC)temp
F
wind
direction
speed
MPH
gust
MPH
rain 1hr
in
rain 24hr
in
rain mn
in
humidity
%
barometer
mb
20260906030006 87 182 4.0 7.0 0.00 0.00 0.00 61 1013.5
20260906025505 87 164 2.0 6.0 0.00 0.00 0.00 61 1013.5
20260906025006 87 157 2.0 6.0 0.00 0.00 0.00 61 1013.4
20260906024506 87 157 2.0 8.0 0.00 0.00 0.00 61 1013.4
20260906023505 87 169 4.0 10.0 0.00 0.00 0.00 60 1013.1
20260906022506 87 144 3.0 8.0 0.00 0.00 0.00 60 1013.0
20260906022006 87 157 2.0 8.0 0.00 0.00 0.00 60 1013.0
20260906021506 87 169 2.0 6.0 0.00 0.00 0.00 60 1012.9
20260906021006 88 163 2.0 9.0 0.00 0.00 0.00 59 1012.8
20260906020506 88 183 4.0 13.0 0.00 0.00 0.00 59 1012.8
20260906020006 88 144 6.0 12.0 0.00 0.00 0.00 59 1012.7
20260906015506 88 137 7.0 13.0 0.00 0.00 0.00 58 1012.7
20260906015006 88 164 9.0 16.0 0.00 0.00 0.00 58 1012.7
20260906014506 88 159 9.0 13.0 0.00 0.00 0.00 57 1012.6
20260906013506 89 159 7.0 14.0 0.00 0.00 0.00 55 1012.4
20260906013006 90 171 5.0 16.0 0.00 0.00 0.00 55 1012.4
20260906012006 91 158 8.0 16.0 0.00 0.00 0.00 53 1012.0
20260906011506 91 150 9.0 14.0 0.00 0.00 0.00 52 1012.0
20260906011006 92 160 9.0 14.0 0.00 0.00 0.00 51 1012.0
20260906010505 92 159 6.0 16.0 0.00 0.00 0.00 51 1011.9
20260906005507 93 162 8.0 15.0 0.00 0.00 0.00 49 1011.8
20260906005006 94 161 10.0 18.0 0.00 0.00 0.00 48 1011.7
20260906004506 95 139 4.0 10.0 0.00 0.00 0.00 45 1011.6
20260906004006 95 173 5.0 9.0 0.00 0.00 0.00 45 1011.6
20260906003506 95 141 4.0 9.0 0.00 0.00 0.00 44 1011.6
20260906002506 95 146 3.0 7.0 0.00 0.00 0.00 43 1011.6
20260906002005 95 139 5.0 9.0 0.00 0.00 0.00 44 1011.6
20260906001506 96 156 5.0 10.0 0.00 0.00 0.00 43 1011.7
20260906001006 96 164 4.0 7.0 0.00 0.00 0.00 43 1011.7
20260906000506 96 160 4.0 10.0 0.00 0.00 0.00 42 1011.7
20260905235505 96 138 4.0 10.0 0.00 0.00 0.00 42 1011.5
20260905235006 96 168 5.0 9.0 0.00 0.00 0.00 41 1011.4
20260905234505 96 180 5.0 8.0 0.00 0.00 0.00 41 1011.3
20260905234005 97 155 4.0 8.0 0.00 0.00 0.00 41 1011.4
20260905233505 97 148 4.0 10.0 0.00 0.00 0.00 41 1011.4
20260905233006 97 134 5.0 12.0 0.00 0.00 0.00 41 1011.4
20260905232505 97 120 3.0 8.0 0.00 0.00 0.00 40 1011.4
20260905231506 97 66 5.0 9.0 0.00 0.00 0.00 40 1011.4
20260905231006 97 119 2.0 9.0 0.00 0.00 0.00 40 1011.5
20260905230506 97 117 5.0 10.0 0.00 0.00 0.00 40 1011.4
20260905230005 97 71 5.0 10.0 0.00 0.00 0.00 40 1011.4
20260905225505 98 161 2.0 9.0 0.00 0.00 0.00 40 1011.3
20260905225005 98 119 4.0 9.0 0.00 0.00 0.00 40 1011.4
20260905224505 98 143 4.0 10.0 0.00 0.00 0.00 40 1011.4
20260905224005 98 98 2.0 7.0 0.00 0.00 0.00 40 1011.3
20260905223505 98 146 4.0 8.0 0.00 0.00 0.00 40 1011.3
20260905223005 98 132 2.0 5.0 0.00 0.00 0.00 41 1011.3
20260905222505 98 182 3.0 8.0 0.00 0.00 0.00 40 1011.3
20260905221505 98 111 0.0 5.0 0.00 0.00 0.00 40 1011.4
20260905220505 98 193 5.0 9.0 0.00 0.00 0.00 39 1011.7
20260905220006 98 211 1.0 7.0 0.00 0.00 0.00 39 1011.7
20260905215005 98 144 3.0 6.0 0.00 0.00 0.00 38 1011.7
20260905214505 99 107 3.0 9.0 0.00 0.00 0.00 39 1011.7
20260905214005 99 58 2.0 10.0 0.00 0.00 0.00 38 1011.8
20260905213505 99 111 5.0 9.0 0.00 0.00 0.00 38 1011.9
20260905212005 99 131 3.0 10.0 0.00 0.00 0.00 39 1012.1
20260905211505 98 113 0.0 0.0 0.00 0.00 0.00 39 1012.1
20260905211005 98 113 2.0 6.0 0.00 0.00 0.00 39 1012.2
20260905210505 98 160 4.0 8.0 0.00 0.00 0.00 40 1012.1
20260905205505 97 157 3.0 6.0 0.00 0.00 0.00 41 1012.4
20260905205005 99 109 2.0 9.0 0.00 0.00 0.00 39 1012.5
20260905204505 98 165 5.0 10.0 0.00 0.00 0.00 41 1012.4
20260905204005 98 213 1.0 3.0 0.00 0.00 0.00 41 1012.6
20260905203505 99 149 5.0 9.0 0.00 0.00 0.00 41 1012.6
20260905203005 98 163 1.0 2.0 0.00 0.00 0.00 40 1012.7
20260905202505 97 163 4.0 10.0 0.00 0.00 0.00 42 1012.7
20260905202005 95 194 1.0 6.0 0.00 0.00 0.00 44 1012.9
20260905201005 97 107 3.0 8.0 0.00 0.00 0.00 42 1013.0
20260905200505 99 117 5.0 12.0 0.00 0.00 0.00 43 1012.9
20260905200005 96 192 2.0 12.0 0.00 0.00 0.00 44 1013.0
20260905195005 98 10 2.0 7.0 0.00 0.00 0.00 41 1013.3
20260905194505 98 162 6.0 10.0 0.00 0.00 0.00 42 1013.3
20260905194004 97 157 5.0 10.0 0.00 0.00 0.00 43 1013.3
20260905193505 95 107 4.0 10.0 0.00 0.00 0.00 45 1013.4
20260905193005 96 99 1.0 9.0 0.00 0.00 0.00 44 1013.5
20260905191504 96 109 3.0 9.0 0.00 0.00 0.00 45 1013.9
20260905191005 97 165 2.0 8.0 0.00 0.00 0.00 44 1014.1
20260905190505 99 202 3.0 8.0 0.00 0.00 0.00 42 1014.2
20260905190005 99 172 5.0 10.0 0.00 0.00 0.00 44 1014.1
20260905185505 98 181 4.0 9.0 0.00 0.00 0.00 44 1014.3
20260905184505 98 355 3.0 9.0 0.00 0.00 0.00 44 1014.5
20260905184005 97 113 6.0 12.0 0.00 0.00 0.00 45 1014.5
20260905183505 96 103 4.0 10.0 0.00 0.00 0.00 46 1014.6
20260905183005 96 56 3.0 6.0 0.00 0.00 0.00 46 1014.7
20260905182505 97 159 4.0 12.0 0.00 0.00 0.00 46 1014.8
20260905180505 97 164 6.0 13.0 0.00 0.00 0.00 45 1014.9
20260905180005 97 169 6.0 17.0 0.00 0.00 0.00 44 1015.1
20260905175504 96 163 2.0 8.0 0.00 0.00 0.00 46 1015.2
20260905175005 96 114 2.0 9.0 0.00 0.00 0.00 44 1015.3
20260905174505 96 175 7.0 13.0 0.00 0.00 0.00 45 1015.3
20260905174004 95 121 5.0 9.0 0.00 0.00 0.00 48 1015.4
20260905173505 95 94 2.0 9.0 0.00 0.00 0.00 49 1015.4
20260905173005 95 175 4.0 8.0 0.00 0.00 0.00 48 1015.4
20260905172005 95 59 4.0 6.0 0.00 0.00 0.00 48 1015.6
20260905171505 95 106 2.0 7.0 0.00 0.00 0.00 49 1015.6
20260905170505 95 167 3.0 6.0 0.00 0.00 0.00 48 1015.8
20260905170005 94 203 2.0 6.0 0.00 0.00 0.00 51 1015.8
20260905165005 94 91 4.0 9.0 0.00 0.00 0.00 50 1015.7
20260905164505 94 131 3.0 9.0 0.00 0.00 0.00 49 1015.7
20260905164005 94 119 5.0 9.0 0.00 0.00 0.00 50 1015.7
20260905163505 94 167 3.0 6.0 0.00 0.00 0.00 50 1015.8
20260905163005 93 211 1.0 5.0 0.00 0.00 0.00 50 1015.8
20260905162505 93 184 4.0 9.0 0.00 0.00 0.00 52 1015.8
20260905162005 93 147 3.0 6.0 0.00 0.00 0.00 52 1015.8
20260905161505 93 213 3.0 8.0 0.00 0.00 0.00 52 1015.8
20260905161004 93 250 2.0 8.0 0.00 0.00 0.00 52 1015.7
20260905160504 93 200 3.0 9.0 0.00 0.00 0.00 51 1015.7
20260905160005 92 217 2.0 7.0 0.00 0.00 0.00 54 1015.7
20260905155505 91 342 2.0 3.0 0.00 0.00 0.00 55 1015.7
20260905155005 91 269 3.0 7.0 0.00 0.00 0.00 56 1015.7
20260905154004 91 275 3.0 9.0 0.00 0.00 0.00 55 1015.6
20260905153505 90 238 1.0 8.0 0.00 0.00 0.00 57 1015.7
20260905153004 91 152 2.0 8.0 0.00 0.00 0.00 56 1015.7
20260905152504 91 281 5.0 9.0 0.00 0.00 0.00 58 1015.7
20260905152004 90 254 2.0 6.0 0.00 0.00 0.00 59 1015.6
20260905151505 89 250 1.0 9.0 0.00 0.00 0.00 59 1015.6
20260905150505 89 247 2.0 9.0 0.00 0.00 0.00 60 1015.6
20260905150004 89 254 2.0 9.0 0.00 0.00 0.00 60 1015.6
20260905145504 89 257 1.0 9.0 0.00 0.00 0.00 62 1015.6
20260905145004 89 248 3.0 8.0 0.00 0.00 0.00 62 1015.5
20260905144504 88 293 5.0 10.0 0.00 0.00 0.00 63 1015.6
20260905144004 88 255 2.0 6.0 0.00 0.00 0.00 63 1015.6
20260905142504 87 223 5.0 9.0 0.00 0.00 0.00 64 1015.4
20260905142004 87 247 4.0 8.0 0.00 0.00 0.00 65 1015.5
20260905141504 87 255 3.0 6.0 0.00 0.00 0.00 66 1015.4
20260905141005 86 247 3.0 9.0 0.00 0.00 0.00 67 1015.4
20260905140504 86 239 5.0 8.0 0.00 0.00 0.00 67 1015.5
20260905140005 86 239 2.0 8.0 0.00 0.00 0.00 68 1015.4
20260905135504 86 240 1.0 5.0 0.00 0.00 0.00 68 1015.5
20260905134504 85 245 2.0 5.0 0.00 0.00 0.00 70 1015.4
20260905134004 85 248 2.0 5.0 0.00 0.00 0.00 70 1015.4
20260905133004 84 263 2.0 7.0 0.00 0.00 0.00 71 1015.2
20260905132504 83 267 2.0 7.0 0.00 0.00 0.00 72 1015.2
20260905132004 83 243 3.0 6.0 0.00 0.00 0.00 72 1015.1
20260905131504 82 217 0.0 2.0 0.00 0.00 0.00 74 1015.0
20260905131004 82 202 0.0 0.0 0.00 0.00 0.00 74 1015.0
20260905130504 81 204 0.0 0.0 0.00 0.00 0.00 75 1015.0
20260905130004 81 231 0.0 0.0 0.00 0.00 0.00 76 1014.9
20260905125505 80 231 0.0 0.0 0.00 0.00 0.00 77 1014.9
20260905125004 80 231 0.0 0.0 0.00 0.00 0.00 78 1015.0
20260905124504 80 231 0.0 0.0 0.00 0.00 0.00 78 1014.8
20260905124004 79 231 0.0 0.0 0.00 0.00 0.00 78 1014.7
20260905123504 79 231 0.0 0.0 0.00 0.00 0.00 79 1014.7
20260905123004 79 231 0.0 0.0 0.00 0.00 0.00 79 1014.6
20260905122504 79 230 0.0 0.0 0.00 0.00 0.00 79 1014.5
20260905121004 78 231 0.0 0.0 0.00 0.00 0.00 79 1014.5
20260905120504 78 231 0.0 0.0 0.00 0.00 0.00 79 1014.5
20260905115005 78 231 0.0 0.0 0.00 0.00 0.00 79 1014.4
20260905114504 78 231 0.0 0.0 0.00 0.00 0.00 79 1014.4
20260905114004 79 231 0.0 0.0 0.00 0.00 0.00 78 1014.4
20260905113505 79 231 0.0 0.0 0.00 0.00 0.00 78 1014.4
20260905112504 79 231 0.0 0.0 0.00 0.00 0.00 77 1014.3
20260905112004 79 231 0.0 0.0 0.00 0.00 0.00 77 1014.4
20260905111503 79 231 0.0 0.0 0.00 0.00 0.00 77 1014.3
20260905111003 79 231 0.0 0.0 0.00 0.00 0.00 77 1014.4
20260905110504 79 231 0.0 0.0 0.00 0.00 0.00 77 1014.5
20260905110004 79 231 0.0 0.0 0.00 0.00 0.00 76 1014.5
20260905105504 79 231 0.0 0.0 0.00 0.00 0.00 76 1014.4
20260905105004 80 231 0.0 0.0 0.00 0.00 0.00 76 1014.4
20260905104504 80 231 0.0 0.0 0.00 0.00 0.00 75 1014.4
20260905104004 80 231 0.0 1.0 0.00 0.00 0.00 75 1014.5
20260905103004 80 231 0.0 1.0 0.00 0.00 0.00 75 1014.6
20260905102004 80 231 0.0 0.0 0.00 0.00 0.00 74 1014.5
20260905101503 80 231 0.0 0.0 0.00 0.00 0.00 74 1014.4
20260905101004 81 231 1.0 2.0 0.00 0.00 0.00 73 1014.3
20260905100003 81 231 0.0 3.0 0.00 0.00 0.00 72 1014.4
20260905095504 82 231 0.0 3.0 0.00 0.00 0.00 71 1014.4
20260905095004 82 231 1.0 3.0 0.00 0.00 0.00 71 1014.4
20260905094503 82 201 2.0 3.0 0.00 0.00 0.00 71 1014.4
20260905094003 82 248 1.0 7.0 0.00 0.00 0.00 70 1014.3
20260905093503 82 244 1.0 5.0 0.00 0.00 0.00 70 1014.2
20260905093004 82 209 2.0 8.0 0.00 0.00 0.00 70 1014.1
20260905092504 82 198 2.0 7.0 0.00 0.00 0.00 70 1014.2
20260905092004 82 217 1.0 8.0 0.00 0.00 0.00 71 1014.0
20260905091504 82 264 0.0 0.0 0.00 0.00 0.00 71 1014.1
20260905091003 82 207 0.0 2.0 0.00 0.00 0.00 70 1014.2
20260905090504 82 207 1.0 3.0 0.00 0.00 0.00 70 1014.1
20260905090004 82 207 0.0 2.0 0.00 0.00 0.00 70 1014.0
20260905085504 82 194 0.0 0.0 0.00 0.00 0.00 69 1014.0
20260905085007 83 213 0.0 2.0 0.00 0.00 0.00 69 1013.9
20260905084506 83 253 1.0 3.0 0.00 0.00 0.00 68 1013.9
20260905084007 83 275 1.0 3.0 0.00 0.00 0.00 68 1013.9
20260905083506 83 197 2.0 3.0 0.00 0.00 0.00 68 1014.1
20260905082006 83 210 0.0 2.0 0.00 0.00 0.00 69 1014.0
20260905081507 82 216 1.0 5.0 0.00 0.00 0.00 69 1013.9
20260905081007 82 199 1.0 5.0 0.00 0.00 0.00 70 1013.9
20260905080506 82 259 1.0 3.0 0.00 0.00 0.00 69 1013.9
20260905080006 83 196 0.0 2.0 0.00 0.00 0.00 68 1014.0
20260905075506 83 196 0.0 2.0 0.00 0.00 0.00 67 1013.9
20260905075007 83 196 0.0 0.0 0.00 0.00 0.00 67 1013.9
20260905074506 84 196 0.0 2.0 0.00 0.00 0.00 66 1013.9
20260905074006 84 196 2.0 3.0 0.00 0.00 0.00 66 1014.0
20260905073007 84 192 1.0 3.0 0.00 0.00 0.00 66 1014.2
20260905072506 84 192 1.0 8.0 0.00 0.00 0.00 66 1014.2
20260905072006 84 197 1.0 6.0 0.00 0.00 0.00 66 1014.2
20260905071506 84 227 0.0 3.0 0.00 0.00 0.00 66 1014.2
20260905071006 84 173 3.0 6.0 0.00 0.00 0.00 65 1014.1
20260905070506 85 173 2.0 7.0 0.00 0.00 0.00 65 1014.3
20260905065506 85 180 2.0 6.0 0.00 0.00 0.00 65 1014.3
20260905065006 85 178 2.0 3.0 0.00 0.00 0.00 65 1014.3
20260905064507 85 172 3.0 6.0 0.00 0.00 0.00 66 1014.3
20260905064006 85 186 0.0 7.0 0.00 0.00 0.00 65 1014.3
20260905063506 85 195 2.0 6.0 0.00 0.00 0.00 65 1014.3
20260905063006 85 167 2.0 7.0 0.00 0.00 0.00 65 1014.3
20260905062506 85 173 3.0 9.0 0.00 0.00 0.00 65 1014.3
20260905061007 86 187 2.0 7.0 0.00 0.00 0.00 64 1014.2
20260905060506 86 199 2.0 7.0 0.00 0.00 0.00 64 1014.3
20260905060006 86 177 3.0 8.0 0.00 0.00 0.00 63 1014.3
20260905055506 86 215 1.0 5.0 0.00 0.00 0.00 63 1014.3
20260905055006 86 196 2.0 7.0 0.00 0.00 0.00 63 1014.2
20260905054506 86 184 3.0 8.0 0.00 0.00 0.00 63 1014.2
20260905054006 86 196 1.0 9.0 0.00 0.00 0.00 63 1014.2
20260905053506 86 195 2.0 5.0 0.00 0.00 0.00 63 1014.2
20260905053006 86 194 2.0 6.0 0.00 0.00 0.00 62 1014.2
20260905052506 86 195 2.0 6.0 0.00 0.00 0.00 62 1014.1
20260905052006 86 198 2.0 6.0 0.00 0.00 0.00 62 1014.0
20260905051506 87 199 1.0 5.0 0.00 0.00 0.00 62 1014.1
20260905051006 87 190 3.0 9.0 0.00 0.00 0.00 61 1014.1
20260905050506 87 183 2.0 7.0 0.00 0.00 0.00 61 1014.1
20260905050006 87 179 2.0 6.0 0.00 0.00 0.00 61 1014.0
20260905045506 87 229 2.0 5.0 0.00 0.00 0.00 60 1014.1
20260905045006 87 219 1.0 5.0 0.00 0.00 0.00 60 1014.2
20260905044006 87 167 3.0 8.0 0.00 0.00 0.00 59 1014.0
20260905043506 87 192 3.0 7.0 0.00 0.00 0.00 59 1014.1
20260905042506 88 188 4.0 8.0 0.00 0.00 0.00 58 1014.1
20260905042006 88 159 4.0 9.0 0.00 0.00 0.00 58 1014.0
20260905041506 88 178 5.0 10.0 0.00 0.00 0.00 58 1014.0
20260905041006 88 202 6.0 12.0 0.00 0.00 0.00 57 1014.1
20260905040506 88 190 7.0 13.0 0.00 0.00 0.00 57 1014.0
20260905040006 88 172 7.0 13.0 0.00 0.00 0.00 57 1014.0
20260905035505 88 166 6.0 12.0 0.00 0.00 0.00 56 1014.0
20260905034506 88 180 5.0 10.0 0.00 0.00 0.00 57 1014.1
20260905034006 88 155 1.0 5.0 0.00 0.00 0.00 57 1014.0
20260905033506 88 159 3.0 6.0 0.00 0.00 0.00 56 1014.0
20260905032006 89 155 2.0 6.0 0.00 0.00 0.00 55 1014.0
20260905031506 89 167 2.0 6.0 0.00 0.00 0.00 55 1014.0
20260905031006 89 155 2.0 7.0 0.00 0.00 0.00 55 1013.9
20260905030505 89 169 1.0 7.0 0.00 0.00 0.00 54 1013.9